GEC17 FIMP-FMEE

Flight info

Callsign GEC17
Flight time 0h 37m
Altitude 14000
Route SOBAT1 SOBAT SOBAT2R
Aircraft B77L/H-SDE1E2E3FGHIJ2J3J4J5M1RWXY/LB1D1

Departure

Time 2026-04-23 00:21
Airport Sir Seewoosagur Ramgoolam International Airport (FIMP)

Arrival

Time 2026-04-23 00:59
Airport Roland Garros Airport (FMEE)
Time Latitude Longitude Altitude Speed Heading
2026-04-23 00:10 -20.43040 57.67579 201 ft 2 kts 203°
2026-04-23 00:10 -20.43025 57.67585 173 ft 4 kts 202°
2026-04-23 00:11 -20.43000 57.67597 174 ft 4 kts 206°
2026-04-23 00:11 -20.42977 57.67610 174 ft 4 kts 212°
2026-04-23 00:11 -20.42953 57.67625 174 ft 4 kts 210°
2026-04-23 00:11 -20.42932 57.67639 173 ft 2 kts 210°
2026-04-23 00:12 -20.42931 57.67639 173 ft 0 kts 210°
2026-04-23 00:17 -20.42932 57.67638 173 ft 2 kts 218°
2026-04-23 00:17 -20.42909 57.67603 175 ft 13 kts 332°
2026-04-23 00:17 -20.42806 57.67543 178 ft 17 kts 330°
2026-04-23 00:18 -20.42700 57.67480 182 ft 17 kts 335°
2026-04-23 00:18 -20.42601 57.67435 197 ft 15 kts 328°
2026-04-23 00:18 -20.42537 57.67346 201 ft 15 kts 298°
2026-04-23 00:18 -20.42489 57.67246 203 ft 15 kts 297°
2026-04-23 00:19 -20.42457 57.67181 205 ft 15 kts 297°
2026-04-23 00:19 -20.42430 57.67080 196 ft 14 kts 270°
2026-04-23 00:19 -20.42425 57.66978 198 ft 14 kts 283°
2026-04-23 00:19 -20.42373 57.66936 213 ft 7 kts 37°
2026-04-23 00:20 -20.42366 57.66988 205 ft 8 kts 105°
2026-04-23 00:20 -20.42377 57.67014 211 ft 3 kts 116°
2026-04-23 00:20 -20.42380 57.67019 211 ft 0 kts 116°
2026-04-23 00:20 -20.42394 57.67051 205 ft 30 kts 116°
2026-04-23 00:21 -20.42813 57.67919 169 ft 163 kts 117°
2026-04-23 00:21 -20.43206 57.68722 334 ft 193 kts 118°
2026-04-23 00:21 -20.43824 57.69974 1342 ft 191 kts 117°
2026-04-23 00:21 -20.44428 57.71246 2422 ft 199 kts 116°
2026-04-23 00:22 -20.45092 57.72657 2731 ft 225 kts 119°
2026-04-23 00:22 -20.46210 57.73900 3206 ft 248 kts 150°
2026-04-23 00:22 -20.47937 57.74289 3885 ft 266 kts 182°
2026-04-23 00:22 -20.49745 57.73751 4716 ft 275 kts 199°
2026-04-23 00:23 -20.51503 57.72905 5608 ft 279 kts 201°
2026-04-23 00:23 -20.53189 57.71848 6360 ft 289 kts 221°
2026-04-23 00:23 -20.54293 57.70035 7083 ft 298 kts 253°
2026-04-23 00:23 -20.54424 57.67852 7942 ft 299 kts 282°
2026-04-23 00:24 -20.53783 57.65735 8617 ft 303 kts 292°
2026-04-23 00:24 -20.53018 57.63627 9482 ft 305 kts 292°
2026-04-23 00:24 -20.52244 57.61511 10351 ft 307 kts 292°
2026-04-23 00:24 -20.51456 57.59352 10882 ft 322 kts 292°
2026-04-23 00:25 -20.50614 57.57029 11040 ft 350 kts 292°
2026-04-23 00:25 -20.49710 57.54520 11241 ft 375 kts 292°
2026-04-23 00:25 -20.48755 57.51848 11585 ft 394 kts 291°
2026-04-23 00:25 -20.47775 57.49093 12363 ft 398 kts 291°
2026-04-23 00:26 -20.46899 57.46289 13025 ft 402 kts 281°
2026-04-23 00:26 -20.46867 57.43288 13629 ft 410 kts 258°
2026-04-23 00:26 -20.47546 57.40338 14203 ft 413 kts 255°
2026-04-23 00:26 -20.48233 57.37362 14972 ft 414 kts 256°
2026-04-23 00:27 -20.48890 57.34397 15633 ft 419 kts 257°
2026-04-23 00:27 -20.49554 57.31346 16261 ft 424 kts 257°
2026-04-23 00:27 -20.50219 57.28273 17031 ft 426 kts 257°
2026-04-23 00:27 -20.50885 57.25180 17701 ft 431 kts 257°
2026-04-23 00:28 -20.51559 57.22045 18278 ft 438 kts 257°
2026-04-23 00:28 -20.52241 57.18866 18829 ft 442 kts 257°
2026-04-23 00:28 -20.52928 57.15666 19534 ft 441 kts 258°
2026-04-23 00:28 -20.53606 57.12503 19955 ft 434 kts 258°
2026-04-23 00:29 -20.54286 57.09331 20016 ft 442 kts 257°
2026-04-23 00:29 -20.54970 57.06132 20023 ft 443 kts 257°
2026-04-23 00:29 -20.55658 57.02914 20018 ft 446 kts 257°
2026-04-23 00:29 -20.56345 56.99695 20673 ft 444 kts 257°
2026-04-23 00:30 -20.57025 56.96499 19949 ft 437 kts 255°
2026-04-23 00:30 -20.57695 56.93355 20666 ft 433 kts 256°
2026-04-23 00:30 -20.58371 56.90187 19969 ft 441 kts 256°
2026-04-23 00:30 -20.59053 56.86989 20028 ft 442 kts 256°
2026-04-23 00:31 -20.59736 56.83777 20028 ft 444 kts 255°
2026-04-23 00:31 -20.60419 56.80562 20030 ft 444 kts 256°
2026-04-23 00:31 -20.61100 56.77355 20037 ft 442 kts 256°
2026-04-23 00:31 -20.61778 56.74155 20034 ft 442 kts 256°
2026-04-23 00:32 -20.62460 56.70935 20047 ft 451 kts 255°
2026-04-23 00:32 -20.63158 56.67639 20043 ft 458 kts 256°
2026-04-23 00:32 -20.63859 56.64324 20037 ft 458 kts 256°
2026-04-23 00:32 -20.64555 56.61021 20034 ft 458 kts 256°
2026-04-23 00:33 -20.65258 56.57692 20035 ft 461 kts 256°
2026-04-23 00:33 -20.65964 56.54341 20041 ft 464 kts 256°
2026-04-23 00:33 -20.66670 56.50981 20032 ft 465 kts 255°
2026-04-23 00:33 -20.67378 56.47614 20033 ft 464 kts 256°
2026-04-23 00:34 -20.68083 56.44256 20032 ft 464 kts 255°
2026-04-23 00:34 -20.68787 56.40901 19964 ft 462 kts 256°
2026-04-23 00:34 -20.69486 56.37563 19693 ft 459 kts 256°
2026-04-23 00:34 -20.70177 56.34263 19615 ft 452 kts 256°
2026-04-23 00:35 -20.70857 56.31012 19534 ft 445 kts 256°
2026-04-23 00:35 -20.71529 56.27799 19135 ft 442 kts 256°
2026-04-23 00:35 -20.71972 56.24575 18697 ft 437 kts 267°
2026-04-23 00:35 -20.71936 56.21344 18263 ft 433 kts 271°
2026-04-23 00:36 -20.71790 56.18151 17750 ft 429 kts 272°
2026-04-23 00:36 -20.71639 56.14983 17287 ft 425 kts 272°
2026-04-23 00:36 -20.71511 56.11889 16842 ft 420 kts 272°
2026-04-23 00:36 -20.71405 56.08785 16395 ft 416 kts 271°
2026-04-23 00:37 -20.71317 56.05713 15962 ft 412 kts 271°
2026-04-23 00:37 -20.71239 56.02663 15523 ft 409 kts 271°
2026-04-23 00:37 -20.71167 55.99644 15100 ft 405 kts 271°
2026-04-23 00:37 -20.71095 55.96648 14665 ft 402 kts 271°
2026-04-23 00:38 -20.71024 55.93680 14254 ft 398 kts 271°
2026-04-23 00:38 -20.70953 55.90756 14071 ft 388 kts 271°
2026-04-23 00:38 -20.70883 55.87929 14031 ft 375 kts 271°
2026-04-23 00:38 -20.70814 55.85147 14024 ft 376 kts 271°
2026-04-23 00:39 -20.70745 55.82356 13733 ft 376 kts 271°
2026-04-23 00:39 -20.70675 55.79579 13447 ft 371 kts 271°
2026-04-23 00:39 -20.70605 55.76846 13093 ft 366 kts 271°
2026-04-23 00:39 -20.70536 55.74129 12609 ft 365 kts 271°
2026-04-23 00:40 -20.70467 55.71424 12117 ft 365 kts 271°
2026-04-23 00:40 -20.70397 55.68711 11657 ft 364 kts 271°
2026-04-23 00:40 -20.70328 55.66053 11516 ft 353 kts 271°
2026-04-23 00:40 -20.70257 55.63478 11412 ft 340 kts 271°
2026-04-23 00:41 -20.70169 55.60999 11314 ft 328 kts 272°
2026-04-23 00:41 -20.70076 55.58597 11129 ft 320 kts 271°
2026-04-23 00:41 -20.69985 55.56262 10939 ft 311 kts 271°
2026-04-23 00:41 -20.69897 55.53956 10572 ft 310 kts 271°
2026-04-23 00:42 -20.69810 55.51687 10295 ft 305 kts 271°
2026-04-23 00:42 -20.69725 55.49416 9919 ft 304 kts 271°
2026-04-23 00:42 -20.69640 55.47151 9380 ft 309 kts 271°
2026-04-23 00:42 -20.69553 55.44879 9147 ft 301 kts 271°
2026-04-23 00:43 -20.69469 55.42681 8957 ft 293 kts 271°
2026-04-23 00:43 -20.69386 55.40537 8289 ft 289 kts 271°
2026-04-23 00:43 -20.69306 55.38411 7694 ft 283 kts 271°
2026-04-23 00:43 -20.69225 55.36320 6929 ft 283 kts 271°
2026-04-23 00:44 -20.69143 55.34201 6246 ft 286 kts 270°
2026-04-23 00:44 -20.69159 55.32109 5969 ft 279 kts 255°
2026-04-23 00:44 -20.69944 55.30266 5662 ft 272 kts 224°
2026-04-23 00:44 -20.71404 55.29035 5359 ft 268 kts 202°
2026-04-23 00:45 -20.73148 55.28421 5064 ft 260 kts 185°
2026-04-23 00:45 -20.74921 55.28175 5017 ft 253 kts 181°
2026-04-23 00:45 -20.76603 55.28196 4894 ft 236 kts 162°
2026-04-23 00:45 -20.77980 55.29006 4481 ft 220 kts 135°
2026-04-23 00:46 -20.78889 55.30259 4149 ft 206 kts 121°
2026-04-23 00:46 -20.79584 55.31523 3853 ft 188 kts 118°
2026-04-23 00:46 -20.80159 55.32698 3681 ft 172 kts 116°
2026-04-23 00:46 -20.80684 55.33812 3427 ft 162 kts 116°
2026-04-23 00:47 -20.81183 55.34882 3245 ft 163 kts 116°
2026-04-23 00:47 -20.81679 55.35948 3028 ft 162 kts 116°
2026-04-23 00:47 -20.82178 55.37019 2794 ft 159 kts 116°
2026-04-23 00:47 -20.82662 55.38061 2592 ft 155 kts 115°
2026-04-23 00:48 -20.83125 55.39096 2342 ft 152 kts 115°
2026-04-23 00:48 -20.83600 55.40102 2157 ft 151 kts 116°
2026-04-23 00:48 -20.84077 55.41104 1945 ft 152 kts 115°
2026-04-23 00:48 -20.84539 55.42125 1747 ft 152 kts 116°
2026-04-23 00:49 -20.84992 55.43149 1543 ft 154 kts 116°
2026-04-23 00:49 -20.85458 55.44185 1312 ft 154 kts 117°
2026-04-23 00:49 -20.85941 55.45172 1071 ft 148 kts 117°
2026-04-23 00:49 -20.86414 55.46157 846 ft 150 kts 117°
2026-04-23 00:50 -20.86880 55.47139 672 ft 148 kts 115°
2026-04-23 00:50 -20.87338 55.48126 520 ft 145 kts 116°
2026-04-23 00:50 -20.87804 55.49109 307 ft 157 kts 114°
2026-04-23 00:50 -20.88294 55.50146 160 ft 155 kts 115°
2026-04-23 00:51 -20.88771 55.51167 85 ft 143 kts 114°
2026-04-23 00:51 -20.89220 55.52137 372 ft 157 kts 115°
2026-04-23 00:51 -20.89716 55.53226 1145 ft 165 kts 117°
2026-04-23 00:51 -20.90040 55.54468 1490 ft 183 kts 91°
2026-04-23 00:52 -20.89646 55.55819 1994 ft 203 kts 66°
2026-04-23 00:52 -20.88642 55.57024 2425 ft 233 kts 37°
2026-04-23 00:52 -20.87013 55.57558 2931 ft 264 kts
2026-04-23 00:52 -20.85211 55.57001 3291 ft 274 kts 328°
2026-04-23 00:53 -20.83784 55.55800 3671 ft 251 kts 324°
2026-04-23 00:53 -20.82421 55.54667 3943 ft 245 kts 323°
2026-04-23 00:53 -20.81075 55.53549 4182 ft 246 kts 324°
2026-04-23 00:53 -20.79770 55.52389 4413 ft 244 kts 312°
2026-04-23 00:54 -20.79089 55.50747 4498 ft 247 kts 271°
2026-04-23 00:54 -20.79285 55.48960 4547 ft 242 kts 257°
2026-04-23 00:54 -20.79552 55.47171 4321 ft 246 kts 259°
2026-04-23 00:54 -20.79769 55.45375 4185 ft 239 kts 261°
2026-04-23 00:55 -20.79955 55.43651 4036 ft 228 kts 261°
2026-04-23 00:55 -20.80153 55.42016 3848 ft 215 kts 251°
2026-04-23 00:55 -20.80878 55.40749 3513 ft 192 kts 209°
2026-04-23 00:55 -20.82076 55.40334 3186 ft 177 kts 166°
2026-04-23 00:56 -20.83068 55.40954 3078 ft 168 kts 128°
2026-04-23 00:56 -20.83824 55.41991 2966 ft 181 kts 115°
2026-04-23 00:56 -20.84002 55.43283 2664 ft 171 kts 98°
2026-04-23 00:56 -20.84419 55.44428 2109 ft 167 kts 127°
2026-04-23 00:57 -20.85313 55.45160 1646 ft 158 kts 147°
2026-04-23 00:57 -20.86075 55.45867 1185 ft 141 kts 126°
2026-04-23 00:57 -20.86622 55.46727 723 ft 143 kts 118°
2026-04-23 00:57 -20.87111 55.47699 585 ft 151 kts 115°
2026-04-23 00:58 -20.87609 55.48701 383 ft 155 kts 116°
2026-04-23 00:58 -20.88106 55.49753 225 ft 160 kts 116°
2026-04-23 00:58 -20.88600 55.50802 62 ft 151 kts 115°
2026-04-23 00:58 -20.89021 55.51701 62 ft 115 kts 117°
2026-04-23 00:59 -20.89242 55.52170 63 ft 32 kts 117°
2026-04-23 00:59 -20.89306 55.52222 67 ft 11 kts 193°
2026-04-23 00:59 -20.89376 55.52188 91 ft 11 kts 207°
2026-04-23 00:59 -20.89400 55.52120 95 ft 11 kts 287°
2026-04-23 01:00 -20.89367 55.52043 93 ft 11 kts 296°
2026-04-23 01:00 -20.89332 55.51968 94 ft 11 kts 297°
2026-04-23 01:00 -20.89296 55.51891 90 ft 11 kts 296°
2026-04-23 01:00 -20.89260 55.51815 93 ft 11 kts 297°
2026-04-23 01:01 -20.89224 55.51740 90 ft 11 kts 296°
2026-04-23 01:01 -20.89189 55.51663 87 ft 11 kts 296°
2026-04-23 01:01 -20.89160 55.51600 91 ft 9 kts 297°
2026-04-23 01:01 -20.89129 55.51537 88 ft 11 kts 297°
2026-04-23 01:02 -20.89086 55.51447 85 ft 15 kts 296°
2026-04-23 01:02 -20.89048 55.51369 85 ft 5 kts 294°
2026-04-23 01:02 -20.89057 55.51331 85 ft 6 kts 228°
2026-04-23 01:02 -20.89091 55.51304 83 ft 1 kts 210°
2026-04-23 01:03 -20.89099 55.51299 83 ft 0 kts 210°